Location: Hilton Head Island
(32.2163°N, 80.7526°W)
Time: 21:31:46
(UTC-05:00)

Explorer 7 - Pass Details

Date: 21 February 2026
Orbit: 430 x 542 km, 50.2° (Epoch: 5 March)

Event Time Altitude Azimuth Distance (km) Brightness Sun altitude
Rises 13:10:55 0° 234° (SW) 2,382 10.5 46.6°
Reaches altitude 10° 13:13:01 10° 238° (WSW) 1,521 9.7 46.5°
Maximum altitude 13:16:23 61° 319° (NW) 496 7.1 46.4°
Drops below altitude 10° 13:19:51 10° 41° (NE) 1,558 8.9 46.2°
Sets 13:22:02 0° 45° (NE) 2,446 9.8 46.1°
